FW0209 Weather Reports


time (UTC)temp
C
wind
direction
speed
KPH
gust
KPH
rain 1hr
cm
rain 24hr
cm
rain mn
cm
humidity
%
barometer
mb
20260831060022 20 279 0.0 3.2 0.00 0.00 0.00 85 1020.9
20260831054530 19 276 3.2 11.3 0.00 0.00 0.00 85 1020.8
20260831053018 18 277 1.6 9.7 0.00 0.00 0.00 86 1020.7
20260831051534 18 262 3.2 9.7 0.00 0.00 0.00 85 1020.6
20260831050018 18 257 3.2 9.7 0.00 0.00 0.00 84 1020.6
20260831044531 18 260 3.2 9.7 0.00 0.00 0.00 83 1020.5
20260831043025 19 262 0.0 4.8 0.00 0.00 0.00 82 1020.4
20260831041535 19 261 0.0 1.6 0.00 0.00 0.00 82 1020.4
20260831040041 19 261 0.0 4.8 0.00 0.00 0.00 81 1020.4
20260831034528 19 266 0.0 1.6 0.00 0.00 0.00 81 1020.3
20260831033029 20 270 0.0 0.0 0.00 0.00 0.00 81 1020.3
20260831031520 20 269 0.0 6.4 0.00 0.00 0.00 81 1020.3
20260831030051 20 268 0.0 9.7 0.00 0.00 0.00 80 1020.3
20260831024520 20 267 0.0 1.6 0.00 0.00 0.00 80 1020.4
20260831023047 20 269 0.0 0.0 0.00 0.00 0.00 79 1020.4
20260831021522 20 269 0.0 3.2 0.00 0.00 0.00 79 1020.4
20260831020029 20 269 0.0 1.6 0.00 0.00 0.00 78 1020.5
20260831014519 20 274 0.0 1.6 0.00 0.00 0.00 77 1020.6
20260831013052 20 273 0.0 0.0 0.00 0.00 0.00 77 1020.5
20260831011539 21 273 0.0 0.0 0.00 0.00 0.00 77 1020.6
20260831010025 21 274 0.0 0.0 0.00 0.00 0.00 76 1020.6
20260831004537 21 273 0.0 0.0 0.00 0.00 0.00 76 1020.6
20260831003104 21 275 0.0 3.2 0.00 0.00 0.00 75 1020.7
20260831001530 21 273 0.0 6.4 0.00 0.00 0.00 77 1020.6
20260831000039 21 276 4.8 11.3 0.00 0.00 0.00 77 1020.7
20260830234534 21 278 6.4 11.3 0.00 0.00 0.00 76 1020.6
20260830233039 21 5 4.8 8.0 0.00 0.00 0.00 75 1020.6
20260830231529 21 5 3.2 9.7 0.00 0.00 0.00 74 1020.7
20260830230022 21 17 3.2 8.0 0.00 0.00 0.00 74 1020.6
20260830224511 22 17 1.6 4.8 0.00 0.00 0.00 72 1020.5
20260830223042 22 17 1.6 4.8 0.00 0.00 0.00 72 1020.5
20260830221555 22 17 0.0 3.2 0.00 0.00 0.00 72 1020.5
20260830214518 22 17 0.0 4.8 0.00 0.00 0.00 72 1020.4
20260830213026 23 17 0.0 3.2 0.00 0.00 0.00 72 1020.3
20260830211542 23 17 0.0 4.8 0.00 0.00 0.00 72 1020.2
20260830210050 23 17 0.0 3.2 0.00 0.00 0.00 71 1020.1
20260830204539 23 17 0.0 1.6 0.00 0.00 0.00 70 1020.1
20260830203044 24 17 3.2 6.4 0.00 0.00 0.00 68 1019.8
20260830201514 25 17 0.0 1.6 0.00 0.00 0.00 68 1019.8
20260830200020 25 17 0.0 8.0 0.00 0.00 0.00 68 1019.6
20260830194513 25 17 4.8 9.7 0.00 0.00 0.00 68 1019.6
20260830193047 26 360 4.8 12.9 0.00 0.00 0.00 66 1019.5
20260830191512 26 360 6.4 20.9 0.00 0.00 0.00 65 1019.4
20260830190040 26 12 11.3 17.7 0.00 0.00 0.00 65 1019.3
20260830184530 26 255 8.0 19.3 0.00 0.00 0.00 65 1019.3
20260830183027 26 206 6.4 19.3 0.00 0.00 0.00 65 1019.1
20260830181516 26 236 11.3 17.7 0.00 0.00 0.00 64 1018.9
20260830180028 27 275 11.3 17.7 0.00 0.00 0.00 62 1018.7
20260830174517 27 266 9.7 25.7 0.00 0.00 0.00 59 1018.4
20260830173024 28 246 14.5 19.3 0.00 0.00 0.00 55 1018.3
20260830171537 28 247 9.7 19.3 0.00 0.00 0.00 52 1018.1
20260830170026 28 268 8.0 25.7 0.00 0.00 0.00 52 1018.0
20260830164537 29 275 12.9 20.9 0.00 0.00 0.00 52 1017.9
20260830163044 28 290 8.0 16.1 0.00 0.00 0.00 50 1018.0
20260830161516 28 321 8.0 16.1 0.00 0.00 0.00 50 1018.0
20260830160025 29 306 6.4 14.5 0.00 0.00 0.00 47 1018.1
20260830154513 30 233 11.3 19.3 0.00 0.00 0.00 45 1018.1
20260830153026 31 327 8.0 17.7 0.00 0.00 0.00 42 1017.7
20260830151516 31 279 14.5 20.9 0.00 0.00 0.00 40 1017.8
20260830150021 32 229 9.7 22.5 0.00 0.00 0.00 38 1017.7
20260830144516 32 225 6.4 19.3 0.00 0.00 0.00 37 1017.7
20260830143022 32 211 8.0 19.3 0.00 0.00 0.00 37 1017.7
20260830141519 32 246 11.3 19.3 0.00 0.00 0.00 37 1017.8
20260830140028 32 242 9.7 20.9 0.00 0.00 0.00 36 1017.9
20260830134521 32 250 1.6 17.7 0.00 0.00 0.00 36 1017.9
20260830133034 32 262 3.2 19.3 0.00 0.00 0.00 36 1017.9
20260830131546 32 269 4.8 19.3 0.00 0.00 0.00 35 1018.1
20260830130012 32 5 6.4 20.9 0.00 0.00 0.00 36 1018.3
20260830124544 31 285 9.7 19.3 0.00 0.00 0.00 35 1018.5
20260830123034 32 267 8.0 17.7 0.00 0.00 0.00 35 1018.6
20260830121521 32 239 0.0 12.9 0.00 0.00 0.00 35 1018.5
20260830120030 32 238 9.7 17.7 0.00 0.00 0.00 36 1018.6
20260830114545 31 281 4.8 11.3 0.00 0.00 0.00 36 1018.7
20260830113054 32 250 8.0 16.1 0.00 0.00 0.00 34 1018.6
20260830111515 33 268 0.0 6.4 0.00 0.00 0.00 32 1018.7
20260830110059 32 265 0.0 4.8 0.00 0.00 0.00 32 1018.8
20260830104551 32 265 1.6 9.7 0.00 0.00 0.00 32 1019.0
20260830103054 32 265 0.0 12.9 0.00 0.00 0.00 34 1019.0
20260830101520 31 286 0.0 0.0 0.00 0.00 0.00 36 1019.2
20260830100046 30 286 0.0 0.0 0.00 0.00 0.00 37 1019.3
20260830094514 30 284 3.2 4.8 0.00 0.00 0.00 38 1019.5
20260830093023 30 288 0.0 1.6 0.00 0.00 0.00 40 1019.6
20260830091537 28 290 0.0 3.2 0.00 0.00 0.00 43 1019.8
20260830090041 28 288 0.0 1.6 0.00 0.00 0.00 44 1020.0
20260830084511 28 288 0.0 3.2 0.00 0.00 0.00 45 1020.3
20260830083018 27 292 0.0 1.6 0.00 0.00 0.00 47 1020.3
20260830081512 27 295 0.0 4.8 0.00 0.00 0.00 48 1020.4
20260830080019 26 296 0.0 6.4 0.00 0.00 0.00 51 1020.4
20260830074522 25 296 0.0 3.2 0.00 0.00 0.00 52 1020.5
20260830073033 25 298 0.0 0.0 0.00 0.00 0.00 55 1020.3
20260830071514 24 296 0.0 0.0 0.00 0.00 0.00 58 1020.4
20260830070020 23 295 0.0 0.0 0.00 0.00 0.00 61 1020.4
20260830064535 21 346 0.0 1.6 0.00 0.00 0.00 68 1020.6
20260830063015 20 288 0.0 0.0 0.00 0.00 0.00 72 1020.7
20260830061523 19 285 0.0 0.0 0.00 0.00 0.00 73 1020.8